Content
SEND FEEDBACK

Daily
Averages
Monthly
Summary
Mexico

CANCUN, QUINTANA ROO


Home > North America > Mexico > Quintana Roo
Elevation: 9 meters     Latitude: 21 09N     Longitude: 086 49W

WEATHER
 
SELECT A DAY
Number of Records: 163,931;   Date Range: 1/1/95 - 8/31/14
 
SHARE

PRINT THIS DATA

[ ← Previous Day ]
WEATHER ALMANAC - 7 APRIL, 2013
[ Next Day → ]
[ °F ]   °C
Weather ElementAverageHighLow
Temperature24.2 °C28 °C (1:40 pm)18 °C (5:40 am)
Dewpoint17.6 °C20 °C (9:41 am)15 °C (3:49 pm)
Humidity67.8 %88 % (5:40 am)48 % (1:40 pm)
Barometer1015.6 hPa1017.6 hPa (10:45 am)1014.2 hPa (3:40 am)
Wind Speed11.7 km/h25.9 km/h (4:41 pm)
Weather ElementAverage
Visibility11.3 km
Wind DirectionESE (108.3 °)

Weather ElementTotal
Precipitation---
Cooling Degree Days4.7 (Base 18.3)
Growing Degree Days13 (Base 10)
Averaged from 24 records on 7 April, 2013
WEATHER CONDITIONS BREAKOUT
WIND DIRECTION BREAKOUT
WEATHER BY HOUR - 7 APRIL, 2013
[ °F ]   °C
Local TimeTemperatureDewpointHumidityBarometerVisibilityWind DirectionWind SpeedGust SpeedPrecipitationEventsConditions
12:45 AM24 °C18 °C69 %1014.9 hPa11.3 kmEast (90°)9.3 km/hScattered Clouds
1:50 AM22 °C17 °C73 %1014.9 hPa11.3 kmNE (50°)5.6 km/hScattered Clouds
3:40 AM22 °C17 °C73 %1014.2 hPa11.3 kmENE (70°)5.6 km/hScattered Clouds
4:47 AM21 °C17 °C78 %1014.6 hPa11.3 kmNNW (340°)3.7 km/hScattered Clouds
5:40 AM18 °C16 °C88 %1014.9 hPa11.3 kmNorth (360°)5.6 km/hScattered Clouds
6:42 AM20 °C18 °C88 %1014.9 hPa11.3 kmNE (40°)9.3 km/hScattered Clouds
7:44 AM22 °C19 °C83 %1015.9 hPa11.3 kmNE (40°)3.7 km/hMostly Cloudy
8:40 AM22 °C19 °C83 %1016.3 hPa11.3 kmENE (70°)7.4 km/hMostly Cloudy
9:41 AM24 °C20 °C78 %1017.3 hPa11.3 kmNE (50°)7.4 km/hMostly Cloudy
10:45 AM26 °C18 °C61 %1017.6 hPa11.3 kmENE (70°)7.4 km/hMostly Cloudy
11:40 AM26 °C19 °C65 %1017.3 hPa11.3 kmENE (60°)11.1 km/hMostly Cloudy
12:47 PM27 °C18 °C58 %1016.6 hPa11.3 kmEast (80°)13 km/hMostly Cloudy
1:40 PM28 °C16 °C48 %1015.9 hPa11.3 kmEast (100°)16.7 km/hMostly Cloudy
2:47 PM28 °C16 °C48 %1014.9 hPa11.3 kmSSE (150°)11.1 km/hMostly Cloudy
3:49 PM27 °C15 °C48 %1014.9 hPa11.3 kmSE (130°)18.5 km/hScattered Clouds
4:41 PM27 °C16 °C51 %1014.2 hPa11.3 kmEast (100°)25.9 km/hMostly Cloudy
5:43 PM26 °C18 °C61 %1014.6 hPa11.3 kmEast (100°)22.2 km/hMostly Cloudy
6:42 PM25 °C18 °C65 %1014.9 hPa11.3 kmESE (120°)16.7 km/hMostly Cloudy
7:51 PM25 °C18 °C65 %1014.9 hPa11.3 kmEast (90°)14.8 km/hMostly Cloudy
8:55 PM24 °C18 °C69 %1015.2 hPa11.3 kmESE (110°)9.3 km/hScattered Clouds
8:59 PM24 °C18 °C69 %1015.2 hPa11.3 kmESE (110°)9.3 km/hScattered Clouds
9:48 PM24 °C18 °C69 %1015.2 hPa11.3 kmENE (70°)14.8 km/hScattered Clouds
10:47 PM24 °C18 °C69 %1016.3 hPa11.3 kmEast (100°)16.7 km/hScattered Clouds
11:46 PM24 °C18 °C69 %1015.9 hPa11.3 kmEast (100°)14.8 km/hScattered Clouds
Hourly data recorded from MMUN, located 0 kilometers away from Cancun, Quintana Roo







STORIES FROM OUR PARTNERS